Time,TemperatureF,DewpointF,PressureIn,WindDirection,WindDirectionDegrees,WindSpeedMPH,WindSpeedGustMPH,Humidity,HourlyPrecipIn,Conditions,Clouds,dailyrainin,SoftwareType,DateUTC
2013-02-27 03:21:00,29.1,-99.9,29.64,North,357,0.0,0.0,255,0.00,,,0.00,Wunderground v.1.15,2013-02-27 09:21:00,
2013-02-27 03:23:00,29.1,-99.9,29.64,NW,308,0.0,0.0,255,0.00,,,0.00,Wunderground v.1.15,2013-02-27 09:23:00,
2013-02-27 03:25:00,29.1,-99.9,29.64,NW,308,0.0,0.0,255,0.00,,,0.00,Wunderground v.1.15,2013-02-27 09:25:00,
2013-02-27 03:27:00,29.1,-99.9,29.64,NNE,30,0.0,0.0,255,0.00,,,0.00,Wunderground v.1.15,2013-02-27 09:27:00,
2013-02-27 03:31:00,29.1,-99.9,29.64,North,350,0.0,0.0,255,0.00,,,0.00,Wunderground v.1.15,2013-02-27 09:31:00,
2013-02-27 03:33:00,29.1,-99.9,29.64,North,350,0.0,0.0,255,0.00,,,0.00,Wunderground v.1.15,2013-02-27 09:33:00,
2013-02-27 03:40:00,-999.9,-99.9,29.64,NNW,332,0.0,0.0,255,-99.99,,,0.00,Wunderground v.1.15,2013-02-27 09:40:00,
2013-02-27 03:45:00,-999.9,-99.9,29.64,NNW,340,0.0,0.0,255,-99.99,,,0.00,Wunderground v.1.15,2013-02-27 09:45:00,
2013-02-27 03:47:00,-999.9,-99.9,29.64,NNW,340,0.0,0.0,255,-99.99,,,0.00,Wunderground v.1.15,2013-02-27 09:47:00,
2013-02-27 03:50:00,-999.9,-99.9,29.64,NNW,340,0.0,0.0,255,-99.99,,,0.00,Wunderground v.1.15,2013-02-27 09:50:00,
2013-02-27 03:51:00,-999.9,-99.9,29.59,NNW,342,0.0,0.0,255,-99.99,,,0.00,Wunderground v.1.15,2013-02-27 09:51:00,
2013-02-27 03:55:00,-999.9,-99.9,29.59,NNW,333,0.0,0.0,255,-99.99,,,0.00,Wunderground v.1.15,2013-02-27 09:55:00,
2013-02-27 03:57:00,-999.9,-99.9,29.59,North,359,0.0,0.0,255,0.00,,,0.00,Wunderground v.1.15,2013-02-27 09:57:00,
2013-02-27 04:01:00,28.8,-99.9,29.59,NW,319,0.0,0.0,255,0.00,,,0.00,Wunderground v.1.15,2013-02-27 10:01:00,
2013-02-27 04:03:00,28.8,-99.9,29.59,North,6,0.0,0.0,255,0.00,,,0.00,Wunderground v.1.15,2013-02-27 10:03:00,
2013-02-27 04:07:00,28.8,-99.9,29.65,North,6,0.0,0.0,255,0.00,,,0.00,Wunderground v.1.15,2013-02-27 10:07:00,
2013-02-27 04:09:00,28.8,-99.9,29.65,North,6,0.0,0.0,255,0.00,,,0.00,Wunderground v.1.15,2013-02-27 10:09:00,
2013-02-27 04:11:00,28.8,-99.9,29.65,North,6,0.0,0.0,255,0.00,,,0.00,Wunderground v.1.15,2013-02-27 10:11:00,
2013-02-27 04:13:00,28.8,-99.9,29.65,North,6,0.0,0.0,255,0.00,,,0.00,Wunderground v.1.15,2013-02-27 10:13:00,
2013-02-27 04:17:00,28.8,-99.9,29.65,NNW,346,0.0,0.0,255,0.00,,,0.00,Wunderground v.1.15,2013-02-27 10:17:00,
2013-02-27 04:20:00,28.8,-99.9,29.65,NNW,335,0.0,0.0,255,0.00,,,0.00,Wunderground v.1.15,2013-02-27 10:20:00,
2013-02-27 04:21:00,28.8,-99.9,29.65,North,0,0.0,0.0,255,0.00,,,0.00,Wunderground v.1.15,2013-02-27 10:21:00,
2013-02-27 04:27:00,28.8,-99.9,29.65,NNW,336,0.0,0.0,255,0.00,,,0.00,Wunderground v.1.15,2013-02-27 10:27:00,
2013-02-27 04:31:00,28.8,-99.9,29.65,North,0,0.0,0.0,255,0.00,,,0.00,Wunderground v.1.15,2013-02-27 10:31:00,
2013-02-27 04:33:00,28.8,-99.9,29.65,North,0,0.0,0.0,255,0.00,,,0.00,Wunderground v.1.15,2013-02-27 10:33:00,
2013-02-27 04:37:00,-999.9,-99.9,29.65,North,0,0.0,0.0,255,-99.99,,,0.00,Wunderground v.1.15,2013-02-27 10:37:00,
2013-02-27 04:40:00,-999.9,-99.9,29.65,North,0,0.0,0.0,255,-99.99,,,0.00,Wunderground v.1.15,2013-02-27 10:40:00,
2013-02-27 04:41:00,-999.9,-99.9,29.65,North,0,0.0,0.0,255,-99.99,,,0.00,Wunderground v.1.15,2013-02-27 10:41:00,
2013-02-27 04:43:00,-999.9,-99.9,29.65,North,32767,-999.0,0.0,255,-99.99,,,0.00,Wunderground v.1.15,2013-02-27 10:43:00,
2013-02-27 04:45:00,-999.9,-99.9,29.65,North,32767,-999.0,0.0,255,-99.99,,,0.00,Wunderground v.1.15,2013-02-27 10:45:00,
2013-02-27 04:47:00,-999.9,-99.9,29.65,North,32767,-999.0,0.0,255,-99.99,,,0.00,Wunderground v.1.15,2013-02-27 10:47:00,
2013-02-27 04:51:00,-999.9,-99.9,29.60,North,32767,-999.0,0.0,255,-99.99,,,0.00,Wunderground v.1.15,2013-02-27 10:51:00,
2013-02-27 04:57:00,28.7,-99.9,29.60,North,32767,-999.0,0.0,255,-99.99,,,0.00,Wunderground v.1.15,2013-02-27 10:57:00,
2013-02-27 05:00:00,28.7,-99.9,29.60,NNW,340,0.0,0.0,255,-99.99,,,0.00,Wunderground v.1.15,2013-02-27 11:00:00,
2013-02-27 05:01:00,28.7,-99.9,29.60,NNW,340,0.0,0.0,255,-99.99,,,0.00,Wunderground v.1.15,2013-02-27 11:01:00,
2013-02-27 05:03:00,28.7,-99.9,29.60,NNW,340,0.0,0.0,255,-99.99,,,0.00,Wunderground v.1.15,2013-02-27 11:03:00,
2013-02-27 05:07:00,28.7,-99.9,29.65,NNW,339,0.0,0.0,255,-99.99,,,0.00,Wunderground v.1.15,2013-02-27 11:07:00,
2013-02-27 05:10:00,28.7,-99.9,29.65,North,353,0.0,0.0,255,-99.99,,,0.00,Wunderground v.1.15,2013-02-27 11:10:00,
2013-02-27 05:13:00,28.7,-99.9,29.65,North,353,0.0,0.0,255,-99.99,,,0.00,Wunderground v.1.15,2013-02-27 11:13:00,
2013-02-27 05:17:00,28.7,-99.9,29.65,North,353,0.0,0.0,255,-99.99,,,0.00,Wunderground v.1.15,2013-02-27 11:17:00,
2013-02-27 05:21:00,-999.9,-99.9,29.60,North,32767,-999.0,0.0,255,-99.99,,,0.00,Wunderground v.1.15,2013-02-27 11:21:00,
2013-02-27 05:23:00,-999.9,-99.9,29.60,North,32767,-999.0,0.0,255,-99.99,,,0.00,Wunderground v.1.15,2013-02-27 11:23:00,
2013-02-27 05:27:00,-999.9,-99.9,29.60,North,32767,-999.0,0.0,255,-99.99,,,0.00,Wunderground v.1.15,2013-02-27 11:27:00,
2013-02-27 05:33:00,-999.9,-99.9,29.60,North,32767,-999.0,0.0,255,-99.99,,,0.00,Wunderground v.1.15,2013-02-27 11:33:00,
2013-02-27 05:35:00,-999.9,-99.9,29.60,North,32767,-999.0,0.0,255,-99.99,,,0.00,Wunderground v.1.15,2013-02-27 11:35:00,
2013-02-27 05:37:00,-999.9,-99.9,29.60,North,32767,-999.0,0.0,255,0.00,,,0.00,Wunderground v.1.15,2013-02-27 11:37:00,
2013-02-27 05:43:00,-999.9,-99.9,29.60,North,32767,-999.0,0.0,255,0.00,,,0.00,Wunderground v.1.15,2013-02-27 11:43:00,
2013-02-27 05:45:00,-999.9,-99.9,29.60,North,32767,-999.0,0.0,255,0.00,,,0.00,Wunderground v.1.15,2013-02-27 11:45:00,
2013-02-27 05:49:00,-999.9,-99.9,29.60,North,32767,-999.0,0.0,255,0.00,,,0.00,Wunderground v.1.15,2013-02-27 11:49:00,
2013-02-27 05:51:00,-999.9,-99.9,29.60,North,32767,-999.0,0.0,255,0.00,,,0.00,Wunderground v.1.15,2013-02-27 11:51:00,
2013-02-27 05:55:00,-999.9,-99.9,29.60,North,32767,-999.0,0.0,255,-99.99,,,0.00,Wunderground v.1.15,2013-02-27 11:55:00,
2013-02-27 05:57:00,-999.9,-99.9,29.60,North,32767,-999.0,0.0,255,-99.99,,,0.00,Wunderground v.1.15,2013-02-27 11:57:00,
2013-02-27 06:01:00,-999.9,-99.9,29.60,North,32767,-999.0,0.0,255,-99.99,,,0.00,Wunderground v.1.15,2013-02-27 12:01:00,
2013-02-27 06:03:00,-999.9,-99.9,29.60,North,32767,-999.0,0.0,255,-99.99,,,0.00,Wunderground v.1.15,2013-02-27 12:03:00,
2013-02-27 06:05:00,-999.9,-99.9,29.60,North,32767,-999.0,0.0,255,-99.99,,,0.00,Wunderground v.1.15,2013-02-27 12:05:00,
2013-02-27 06:07:00,-999.9,-99.9,29.60,North,32767,-999.0,0.0,255,-99.99,,,0.00,Wunderground v.1.15,2013-02-27 12:07:00,
2013-02-27 06:10:00,-999.9,-99.9,29.60,North,32767,-999.0,0.0,255,-99.99,,,0.00,Wunderground v.1.15,2013-02-27 12:10:00,
2013-02-27 06:13:00,-999.9,-99.9,29.60,North,32767,-999.0,0.0,255,-99.99,,,0.00,Wunderground v.1.15,2013-02-27 12:13:00,
2013-02-27 06:15:00,-999.9,-99.9,29.60,North,32767,-999.0,0.0,255,-99.99,,,0.00,Wunderground v.1.15,2013-02-27 12:15:00,
2013-02-27 06:21:00,-999.9,-99.9,29.61,North,32767,-999.0,0.0,255,-99.99,,,0.00,Wunderground v.1.15,2013-02-27 12:21:00,
2013-02-27 06:23:00,-999.9,-99.9,29.61,North,32767,-999.0,0.0,255,-99.99,,,0.00,Wunderground v.1.15,2013-02-27 12:23:00,
2013-02-27 06:25:00,-999.9,-99.9,29.61,North,32767,-999.0,0.0,255,-99.99,,,0.00,Wunderground v.1.15,2013-02-27 12:25:00,
2013-02-27 06:27:00,-999.9,-99.9,29.61,North,0,0.0,0.0,255,-99.99,,,0.00,Wunderground v.1.15,2013-02-27 12:27:00,
2013-02-27 06:30:00,-999.9,-99.9,29.61,NW,320,0.0,0.0,255,-99.99,,,0.00,Wunderground v.1.15,2013-02-27 12:30:00,
2013-02-27 06:31:00,-999.9,-99.9,29.61,NW,320,0.0,0.0,255,-99.99,,,0.00,Wunderground v.1.15,2013-02-27 12:31:00,
2013-02-27 06:35:00,-999.9,-99.9,29.61,North,354,0.0,0.0,255,-99.99,,,0.00,Wunderground v.1.15,2013-02-27 12:35:00,
2013-02-27 06:37:00,-999.9,-99.9,29.61,North,354,0.0,0.0,255,-99.99,,,0.00,Wunderground v.1.15,2013-02-27 12:37:00,
2013-02-27 06:43:00,-999.9,-99.9,29.61,NW,318,0.0,0.0,255,-99.99,,,0.00,Wunderground v.1.15,2013-02-27 12:43:00,
2013-02-27 06:45:00,-999.9,-99.9,29.61,NW,318,0.0,0.0,255,-99.99,,,0.00,Wunderground v.1.15,2013-02-27 12:45:00,
2013-02-27 06:50:00,-999.9,-99.9,29.61,NNW,328,0.0,0.0,255,-99.99,,,0.00,Wunderground v.1.15,2013-02-27 12:50:00,
2013-02-27 06:53:00,-999.9,-99.9,29.61,NW,313,0.0,0.0,255,-99.99,,,0.00,Wunderground v.1.15,2013-02-27 12:53:00,
2013-02-27 06:55:00,-999.9,-99.9,29.61,North,0,0.0,0.0,255,-99.99,,,0.00,Wunderground v.1.15,2013-02-27 12:55:00,
2013-02-27 07:01:00,-999.9,-99.9,29.61,North,0,0.0,0.0,255,-99.99,,,0.00,Wunderground v.1.15,2013-02-27 13:01:00,
2013-02-27 07:03:00,-999.9,-99.9,29.61,NNW,340,0.0,0.0,255,-99.99,,,0.00,Wunderground v.1.15,2013-02-27 13:03:00,
2013-02-27 07:07:00,-999.9,-99.9,29.62,NNW,339,0.0,0.0,255,-99.99,,,0.00,Wunderground v.1.15,2013-02-27 13:07:00,
2013-02-27 07:10:00,-999.9,-99.9,29.62,NNW,339,0.0,0.0,255,0.00,,,0.00,Wunderground v.1.15,2013-02-27 13:10:00,
2013-02-27 07:13:00,-999.9,-99.9,29.62,NNW,339,0.0,0.0,255,0.00,,,0.00,Wunderground v.1.15,2013-02-27 13:13:00,
2013-02-27 07:15:00,-999.9,-99.9,29.62,NNW,339,0.0,0.0,255,0.00,,,0.00,Wunderground v.1.15,2013-02-27 13:15:00,
2013-02-27 07:17:00,-999.9,-99.9,29.62,NNW,339,0.0,0.0,255,0.00,,,0.00,Wunderground v.1.15,2013-02-27 13:17:00,
2013-02-27 07:21:00,-999.9,-99.9,29.63,NW,318,0.0,0.0,255,0.00,,,0.00,Wunderground v.1.15,2013-02-27 13:21:00,
2013-02-27 07:23:00,-999.9,-99.9,29.63,NW,318,0.0,0.0,255,0.00,,,0.00,Wunderground v.1.15,2013-02-27 13:23:00,
2013-02-27 07:25:00,-999.9,-99.9,29.63,NW,318,0.0,0.0,255,-99.99,,,0.00,Wunderground v.1.15,2013-02-27 13:25:00,
2013-02-27 07:27:00,-999.9,-99.9,29.63,North,0,0.0,0.0,255,-99.99,,,0.00,Wunderground v.1.15,2013-02-27 13:27:00,
2013-02-27 07:31:00,-999.9,-99.9,29.63,North,354,0.0,0.0,255,-99.99,,,0.00,Wunderground v.1.15,2013-02-27 13:31:00,
2013-02-27 07:35:00,28.7,-99.9,29.68,NW,316,0.0,0.0,255,-99.99,,,0.00,Wunderground v.1.15,2013-02-27 13:35:00,
2013-02-27 07:39:00,28.7,-99.9,29.68,NNW,335,0.0,0.0,255,-99.99,,,0.00,Wunderground v.1.15,2013-02-27 13:39:00,
2013-02-27 07:41:00,28.7,-99.9,29.68,NNW,333,0.0,0.0,255,-99.99,,,0.00,Wunderground v.1.15,2013-02-27 13:41:00,
2013-02-27 07:47:00,28.7,-99.9,29.68,NW,312,0.0,0.0,255,-99.99,,,0.00,Wunderground v.1.15,2013-02-27 13:47:00,
2013-02-27 07:53:00,28.7,-99.9,29.68,NW,318,0.0,0.0,255,-99.99,,,0.00,Wunderground v.1.15,2013-02-27 13:53:00,
2013-02-27 07:55:00,28.7,-99.9,29.68,NW,308,0.0,0.0,255,-99.99,,,0.00,Wunderground v.1.15,2013-02-27 13:55:00,
2013-02-27 07:57:00,28.7,-99.9,29.68,NW,325,0.0,0.0,255,-99.99,,,0.00,Wunderground v.1.15,2013-02-27 13:57:00,
2013-02-27 08:01:00,28.7,-99.9,29.68,NW,308,0.0,0.0,255,-99.99,,,0.00,Wunderground v.1.15,2013-02-27 14:01:00,
2013-02-27 08:03:00,28.7,-99.9,29.68,NW,308,0.0,0.0,255,-99.99,,,0.00,Wunderground v.1.15,2013-02-27 14:03:00,
2013-02-27 08:05:00,28.7,-99.9,29.69,NW,308,0.0,0.0,255,-99.99,,,0.00,Wunderground v.1.15,2013-02-27 14:05:00,
2013-02-27 08:07:00,28.7,-99.9,29.69,NW,308,0.0,0.0,255,-99.99,,,0.00,Wunderground v.1.15,2013-02-27 14:07:00,
2013-02-27 08:11:00,28.7,-99.9,29.69,NW,308,0.0,0.0,255,0.00,,,0.00,Wunderground v.1.15,2013-02-27 14:11:00,
2013-02-27 08:17:00,28.7,-99.9,29.69,NNW,347,0.0,0.0,255,0.00,,,0.00,Wunderground v.1.15,2013-02-27 14:17:00,
2013-02-27 08:20:00,28.7,-99.9,29.69,NNW,347,0.0,0.0,255,0.00,,,0.00,Wunderground v.1.15,2013-02-27 14:20:00,
2013-02-27 08:21:00,28.7,-99.9,29.69,NNW,347,0.0,0.0,255,0.00,,,0.00,Wunderground v.1.15,2013-02-27 14:21:00,
2013-02-27 08:23:00,-999.9,-99.9,29.69,NNW,347,0.0,0.0,255,-99.99,,,0.00,Wunderground v.1.15,2013-02-27 14:23:00,
2013-02-27 08:25:00,-999.9,-99.9,29.69,NW,318,0.0,0.0,255,-99.99,,,0.00,Wunderground v.1.15,2013-02-27 14:25:00,
2013-02-27 08:29:00,-999.9,-99.9,29.69,NW,322,0.0,0.0,255,-99.99,,,0.00,Wunderground v.1.15,2013-02-27 14:29:00,
2013-02-27 08:33:00,28.7,-99.9,29.69,NW,326,0.0,0.0,255,-99.99,,,0.00,Wunderground v.1.15,2013-02-27 14:33:00,
2013-02-27 08:35:00,28.7,-99.9,29.69,NNW,328,0.0,0.0,255,0.00,,,0.00,Wunderground v.1.15,2013-02-27 14:35:00,
2013-02-27 08:38:00,28.8,-99.9,29.69,NNW,332,0.0,0.0,255,0.00,,,0.00,Wunderground v.1.15,2013-02-27 14:38:00,
2013-02-27 08:43:00,28.8,28.1,29.69,NNW,329,0.0,0.0,97,0.00,,,0.00,Wunderground v.1.15,2013-02-27 14:43:00,
2013-02-27 08:45:00,28.8,28.1,29.69,WNW,298,0.0,0.0,97,0.00,,,0.00,Wunderground v.1.15,2013-02-27 14:45:00,
2013-02-27 08:51:00,28.8,28.1,29.70,NW,313,0.0,0.0,97,0.00,,,0.00,Wunderground v.1.15,2013-02-27 14:51:00,
2013-02-27 08:55:00,28.8,28.1,29.70,WNW,299,0.0,0.0,97,0.00,,,0.00,Wunderground v.1.15,2013-02-27 14:55:00,
2013-02-27 08:59:00,28.8,28.1,29.70,NW,325,0.0,0.0,97,0.00,,,0.00,Wunderground v.1.15,2013-02-27 14:59:00,
2013-02-27 09:01:00,28.8,28.1,29.70,WNW,296,0.0,0.0,97,0.00,,,0.00,Wunderground v.1.15,2013-02-27 15:01:00,
2013-02-27 09:03:00,28.8,28.1,29.70,NW,309,0.0,0.0,97,0.00,,,0.00,Wunderground v.1.15,2013-02-27 15:03:00,
2013-02-27 09:05:00,28.8,28.1,29.70,NNW,335,0.0,0.0,97,0.00,,,0.00,Wunderground v.1.15,2013-02-27 15:05:00,
2013-02-27 09:07:00,28.8,28.1,29.70,NW,326,0.0,0.0,97,0.00,,,0.00,Wunderground v.1.15,2013-02-27 15:07:00,
2013-02-27 09:11:00,29.5,28.8,29.70,NW,319,0.0,0.0,97,0.00,,,0.00,Wunderground v.1.15,2013-02-27 15:11:00,
2013-02-27 09:17:00,29.5,28.8,29.70,NW,312,0.0,0.0,97,0.00,,,0.00,Wunderground v.1.15,2013-02-27 15:17:00,
2013-02-27 09:21:00,29.5,28.8,29.70,NW,325,0.0,0.0,97,0.00,,,0.00,Wunderground v.1.15,2013-02-27 15:21:00,
2013-02-27 09:23:00,29.5,28.8,29.70,NNW,328,0.0,0.0,97,0.00,,,0.00,Wunderground v.1.15,2013-02-27 15:23:00,
2013-02-27 09:27:00,29.5,28.8,29.70,NW,304,0.0,0.0,97,0.00,,,0.00,Wunderground v.1.15,2013-02-27 15:27:00,
2013-02-27 09:30:00,29.5,28.8,29.70,NNW,346,0.0,0.0,97,0.00,,,0.00,Wunderground v.1.15,2013-02-27 15:30:00,
2013-02-27 09:31:00,29.5,28.8,29.70,NW,325,0.0,0.0,97,0.00,,,0.00,Wunderground v.1.15,2013-02-27 15:31:00,
2013-02-27 09:33:00,29.5,28.8,29.70,NNW,330,0.0,0.0,97,0.00,,,0.00,Wunderground v.1.15,2013-02-27 15:33:00,
2013-02-27 09:35:00,29.5,28.8,29.70,NW,309,0.0,0.0,97,0.00,,,0.00,Wunderground v.1.15,2013-02-27 15:35:00,
2013-02-27 09:39:00,29.5,28.8,29.70,NW,316,0.0,0.0,97,0.00,,,0.00,Wunderground v.1.15,2013-02-27 15:39:00,
2013-02-27 09:41:00,29.5,28.8,29.70,NNW,337,0.0,0.0,97,0.00,,,0.00,Wunderground v.1.15,2013-02-27 15:41:00,
2013-02-27 09:43:00,29.5,28.8,29.70,WNW,298,0.0,0.0,97,0.00,,,0.00,Wunderground v.1.15,2013-02-27 15:43:00,
2013-02-27 09:50:00,29.5,28.8,29.70,NNW,329,0.0,0.0,97,0.00,,,0.00,Wunderground v.1.15,2013-02-27 15:50:00,
2013-02-27 09:51:00,29.5,28.8,29.70,NW,318,0.0,0.0,97,0.00,,,0.00,Wunderground v.1.15,2013-02-27 15:51:00,
2013-02-27 09:55:00,29.5,28.8,29.70,NNW,336,0.0,0.0,97,0.00,,,0.00,Wunderground v.1.15,2013-02-27 15:55:00,
2013-02-27 09:57:00,29.5,28.8,29.70,NW,316,0.0,0.0,97,0.00,,,0.00,Wunderground v.1.15,2013-02-27 15:57:00,
2013-02-27 10:00:00,29.5,28.8,29.70,NW,316,0.0,0.0,97,0.00,,,0.00,Wunderground v.1.15,2013-02-27 16:00:00,
2013-02-27 10:03:00,29.5,28.8,29.70,NNW,336,0.0,0.0,97,0.00,,,0.00,Wunderground v.1.15,2013-02-27 16:03:00,
2013-02-27 10:05:00,29.5,28.8,29.70,West,281,0.0,0.0,97,0.00,,,0.00,Wunderground v.1.15,2013-02-27 16:05:00,
2013-02-27 10:10:00,29.5,28.8,29.70,NW,319,0.0,0.0,97,0.00,,,0.00,Wunderground v.1.15,2013-02-27 16:10:00,
2013-02-27 10:11:00,29.5,28.8,29.70,NW,316,0.0,0.0,97,0.00,,,0.00,Wunderground v.1.15,2013-02-27 16:11:00,
2013-02-27 10:15:00,29.5,28.8,29.70,North,356,0.0,0.0,97,0.00,,,0.00,Wunderground v.1.15,2013-02-27 16:15:00,
2013-02-27 10:21:00,29.5,28.8,29.70,NNW,346,0.0,0.0,97,0.00,,,0.00,Wunderground v.1.15,2013-02-27 16:21:00,
2013-02-27 10:23:00,29.5,-99.9,29.70,NW,318,0.0,0.0,255,0.00,,,0.00,Wunderground v.1.15,2013-02-27 16:23:00,
2013-02-27 10:27:00,29.5,-99.9,29.70,WNW,296,0.0,0.0,255,0.00,,,0.00,Wunderground v.1.15,2013-02-27 16:27:00,
2013-02-27 10:29:00,29.5,-99.9,29.70,WNW,296,0.0,0.0,255,0.00,,,0.00,Wunderground v.1.15,2013-02-27 16:29:00,
2013-02-27 10:31:00,29.5,-99.9,29.70,WNW,296,0.0,0.0,255,0.00,,,0.00,Wunderground v.1.15,2013-02-27 16:31:00,
2013-02-27 10:33:00,29.5,-99.9,29.70,WNW,296,0.0,0.0,255,0.00,,,0.00,Wunderground v.1.15,2013-02-27 16:33:00,
2013-02-27 10:37:00,-999.9,-99.9,29.69,North,32767,-999.0,0.0,255,-99.99,,,0.00,Wunderground v.1.15,2013-02-27 16:37:00,
2013-02-27 10:41:00,-999.9,-99.9,29.69,NW,318,0.0,0.0,255,-99.99,,,0.00,Wunderground v.1.15,2013-02-27 16:41:00,
2013-02-27 10:43:00,-999.9,-99.9,29.69,NW,311,0.0,0.0,255,-99.99,,,0.00,Wunderground v.1.15,2013-02-27 16:43:00,
2013-02-27 10:45:00,-999.9,-99.9,29.69,NW,313,0.0,0.0,255,-99.99,,,0.00,Wunderground v.1.15,2013-02-27 16:45:00,
2013-02-27 10:50:00,-999.9,-99.9,29.69,NNW,339,0.0,0.0,255,-99.99,,,0.00,Wunderground v.1.15,2013-02-27 16:50:00,
2013-02-27 10:51:00,-999.9,-99.9,29.65,NNW,339,0.0,0.0,255,-99.99,,,0.00,Wunderground v.1.15,2013-02-27 16:51:00,
2013-02-27 10:55:00,-999.9,-99.9,29.65,WNW,301,0.0,0.0,255,-99.99,,,0.00,Wunderground v.1.15,2013-02-27 16:55:00,
2013-02-27 11:01:00,-999.9,-99.9,29.65,NW,320,0.0,0.0,255,-99.99,,,0.00,Wunderground v.1.15,2013-02-27 17:01:00,
2013-02-27 11:03:00,-999.9,-99.9,29.65,NW,325,0.0,0.0,255,-99.99,,,0.00,Wunderground v.1.15,2013-02-27 17:03:00,
2013-02-27 11:07:00,-999.9,-99.9,29.65,NW,313,0.0,0.0,255,-99.99,,,0.00,Wunderground v.1.15,2013-02-27 17:07:00,
2013-02-27 11:10:00,-999.9,-99.9,29.65,NW,308,0.0,0.0,255,-99.99,,,0.00,Wunderground v.1.15,2013-02-27 17:10:00,
2013-02-27 11:11:00,-999.9,-99.9,29.65,NNW,342,0.0,0.0,255,-99.99,,,0.00,Wunderground v.1.15,2013-02-27 17:11:00,
2013-02-27 11:17:00,31.3,-99.9,29.65,NNW,332,0.0,0.0,255,-99.99,,,0.00,Wunderground v.1.15,2013-02-27 17:17:00,
2013-02-27 11:20:00,31.3,-99.9,29.65,NNW,332,0.0,0.0,255,-99.99,,,0.00,Wunderground v.1.15,2013-02-27 17:20:00,
2013-02-27 11:23:00,31.3,-99.9,29.70,NW,308,0.0,0.0,255,-99.99,,,0.00,Wunderground v.1.15,2013-02-27 17:23:00,
2013-02-27 11:25:00,31.3,-99.9,29.70,NNW,343,0.0,0.0,255,-99.99,,,0.00,Wunderground v.1.15,2013-02-27 17:25:00,
2013-02-27 11:27:00,31.3,-99.9,29.70,NNW,343,0.0,0.0,255,-99.99,,,0.00,Wunderground v.1.15,2013-02-27 17:27:00,
2013-02-27 11:30:00,31.3,-99.9,29.70,NW,309,0.0,0.0,255,-99.99,,,0.00,Wunderground v.1.15,2013-02-27 17:30:00,
2013-02-27 11:33:00,31.3,-99.9,29.70,NNW,337,0.0,0.0,255,-99.99,,,0.00,Wunderground v.1.15,2013-02-27 17:33:00,
2013-02-27 11:35:00,31.3,-99.9,29.70,NNW,337,0.0,0.0,255,-99.99,,,0.00,Wunderground v.1.15,2013-02-27 17:35:00,
2013-02-27 11:37:00,31.3,-99.9,29.70,NNW,337,0.0,0.0,255,-99.99,,,0.00,Wunderground v.1.15,2013-02-27 17:37:00,
2013-02-27 11:40:00,31.3,-99.9,29.70,WNW,288,0.0,0.0,255,-99.99,,,0.00,Wunderground v.1.15,2013-02-27 17:40:00,
2013-02-27 11:41:00,31.3,-99.9,29.70,NNW,328,0.0,0.0,255,-99.99,,,0.00,Wunderground v.1.15,2013-02-27 17:41:00,
2013-02-27 11:45:00,31.3,-99.9,29.70,NNW,328,0.0,0.0,255,-99.99,,,0.00,Wunderground v.1.15,2013-02-27 17:45:00,
2013-02-27 11:47:00,31.3,-99.9,29.70,NNW,328,0.0,0.0,255,-99.99,,,0.00,Wunderground v.1.15,2013-02-27 17:47:00,
2013-02-27 11:50:00,31.3,-99.9,29.70,NNW,328,0.0,0.0,255,-99.99,,,0.00,Wunderground v.1.15,2013-02-27 17:50:00,
2013-02-27 11:51:00,31.3,-99.9,29.70,NNW,335,0.0,0.0,255,-99.99,,,0.00,Wunderground v.1.15,2013-02-27 17:51:00,
2013-02-27 11:53:00,31.3,-99.9,29.70,NNW,335,0.0,0.0,255,-99.99,,,0.00,Wunderground v.1.15,2013-02-27 17:53:00,
2013-02-27 11:55:00,31.3,-99.9,29.70,NNW,335,0.0,0.0,255,-99.99,,,0.00,Wunderground v.1.15,2013-02-27 17:55:00,
2013-02-27 12:00:00,31.3,-99.9,29.70,NW,319,0.0,0.0,255,-99.99,,,0.00,Wunderground v.1.15,2013-02-27 18:00:00,
2013-02-27 12:01:00,31.3,-99.9,29.70,NW,319,0.0,0.0,255,-99.99,,,0.00,Wunderground v.1.15,2013-02-27 18:01:00,
2013-02-27 12:03:00,31.3,-99.9,29.70,NNW,336,3.0,3.0,255,-99.99,,,0.00,Wunderground v.1.15,2013-02-27 18:03:00,
2013-02-27 12:10:00,31.3,-99.9,29.70,NW,319,3.0,3.0,255,-99.99,,,0.00,Wunderground v.1.15,2013-02-27 18:10:00,
2013-02-27 12:13:00,-999.9,-99.9,29.70,NW,326,2.0,2.0,255,-99.99,,,0.00,Wunderground v.1.15,2013-02-27 18:13:00,
2013-02-27 12:17:00,-999.9,-99.9,29.70,North,354,1.0,2.0,11,-99.99,,,0.00,Wunderground v.1.15,2013-02-27 18:17:00,
2013-02-27 12:19:00,-999.9,-99.9,29.70,North,354,1.0,2.0,11,-99.99,,,0.00,Wunderground v.1.15,2013-02-27 18:19:00,
2013-02-27 12:21:00,-999.9,-99.9,29.65,NW,320,6.0,6.0,11,-99.99,,,0.00,Wunderground v.1.15,2013-02-27 18:21:00,
2013-02-27 12:25:00,-999.9,-99.9,29.65,NW,308,3.0,3.0,11,-99.99,,,0.00,Wunderground v.1.15,2013-02-27 18:25:00,
2013-02-27 12:27:00,-999.9,-99.9,29.65,NW,308,3.0,3.0,11,-99.99,,,0.00,Wunderground v.1.15,2013-02-27 18:27:00,
2013-02-27 12:29:00,-999.9,-99.9,29.65,NNW,333,2.0,3.0,11,-99.99,,,0.00,Wunderground v.1.15,2013-02-27 18:29:00,
2013-02-27 12:31:00,-999.9,-99.9,29.65,North,356,6.0,6.0,11,-99.99,,,0.00,Wunderground v.1.15,2013-02-27 18:31:00,
2013-02-27 12:33:00,-999.9,-99.9,29.65,North,356,6.0,6.0,11,-99.99,,,0.00,Wunderground v.1.15,2013-02-27 18:33:00,
2013-02-27 12:35:00,-999.9,-99.9,29.65,NW,320,0.0,6.0,11,-99.99,,,0.00,Wunderground v.1.15,2013-02-27 18:35:00,
2013-02-27 12:37:00,31.3,-17.3,29.65,NW,320,0.0,6.0,11,-99.99,,,0.00,Wunderground v.1.15,2013-02-27 18:37:00,
2013-02-27 12:39:00,31.3,-17.3,29.65,NW,320,0.0,6.0,11,-99.99,,,0.00,Wunderground v.1.15,2013-02-27 18:39:00,
2013-02-27 12:43:00,31.3,-17.3,29.65,NNW,344,1.0,3.0,11,-99.99,,,0.00,Wunderground v.1.15,2013-02-27 18:43:00,
2013-02-27 12:45:00,31.3,-17.3,29.65,NNW,335,2.0,3.0,11,-99.99,,,0.00,Wunderground v.1.15,2013-02-27 18:45:00,
2013-02-27 12:49:00,-999.9,-99.9,29.65,NW,313,2.0,4.0,255,-99.99,,,0.00,Wunderground v.1.15,2013-02-27 18:49:00,
2013-02-27 12:51:00,-999.9,-99.9,29.65,NNW,330,2.0,4.0,255,-99.99,,,0.00,Wunderground v.1.15,2013-02-27 18:51:00,
2013-02-27 12:53:00,-999.9,-99.9,29.65,NW,313,2.0,2.0,255,-99.99,,,0.00,Wunderground v.1.15,2013-02-27 18:53:00,
2013-02-27 12:55:00,-999.9,-99.9,29.65,NW,325,2.0,3.0,255,-99.99,,,0.00,Wunderground v.1.15,2013-02-27 18:55:00,
2013-02-27 12:57:00,-999.9,-99.9,29.65,NW,305,2.0,3.0,255,-99.99,,,0.00,Wunderground v.1.15,2013-02-27 18:57:00,
2013-02-27 12:59:00,-999.9,-99.9,29.65,North,349,2.0,3.0,255,-99.99,,,0.00,Wunderground v.1.15,2013-02-27 18:59:00,
2013-02-27 13:01:00,-999.9,-99.9,29.65,WNW,296,2.0,3.0,255,-99.99,,,0.00,Wunderground v.1.15,2013-02-27 19:01:00,
2013-02-27 13:07:00,-999.9,-99.9,29.65,West,274,2.0,3.0,255,-99.99,,,0.00,Wunderground v.1.15,2013-02-27 19:07:00,
2013-02-27 13:09:00,-999.9,-99.9,29.65,WNW,302,2.0,3.0,255,-99.99,,,0.00,Wunderground v.1.15,2013-02-27 19:09:00,
2013-02-27 13:13:00,-999.9,-99.9,29.65,NW,322,2.0,2.0,255,-99.99,,,0.00,Wunderground v.1.15,2013-02-27 19:13:00,
2013-02-27 13:15:00,-999.9,-99.9,29.65,NNW,340,0.0,2.0,255,-99.99,,,0.00,Wunderground v.1.15,2013-02-27 19:15:00,
2013-02-27 13:17:00,-999.9,-99.9,29.65,NNW,328,1.0,2.0,255,-99.99,,,0.00,Wunderground v.1.15,2013-02-27 19:17:00,
2013-02-27 13:19:00,-999.9,-99.9,29.65,NNW,328,1.0,2.0,255,-99.99,,,0.00,Wunderground v.1.15,2013-02-27 19:19:00,
2013-02-27 13:25:00,-999.9,-99.9,29.65,NNW,342,0.0,1.0,255,-99.99,,,0.00,Wunderground v.1.15,2013-02-27 19:25:00,
2013-02-27 13:27:00,-999.9,-99.9,29.65,NW,326,0.0,4.0,255,-99.99,,,0.00,Wunderground v.1.15,2013-02-27 19:27:00,
2013-02-27 13:31:00,-999.9,-99.9,29.65,NNW,347,1.0,1.0,255,-99.99,,,0.00,Wunderground v.1.15,2013-02-27 19:31:00,
2013-02-27 13:33:00,-999.9,-99.9,29.65,NNW,347,1.0,4.0,255,-99.99,,,0.00,Wunderground v.1.15,2013-02-27 19:33:00,
2013-02-27 13:35:00,-999.9,-99.9,29.65,North,350,1.0,4.0,255,-99.99,,,0.00,Wunderground v.1.15,2013-02-27 19:35:00,
2013-02-27 13:37:00,-999.9,-99.9,29.65,NNW,342,1.0,4.0,255,-99.99,,,0.00,Wunderground v.1.15,2013-02-27 19:37:00,
2013-02-27 13:39:00,-999.9,-99.9,29.65,NNW,342,1.0,4.0,255,-99.99,,,0.00,Wunderground v.1.15,2013-02-27 19:39:00,
2013-02-27 13:43:00,-999.9,-99.9,29.65,WNW,302,0.0,4.0,255,-99.99,,,0.00,Wunderground v.1.15,2013-02-27 19:43:00,
2013-02-27 13:45:00,-999.9,-99.9,29.65,WNW,302,0.0,4.0,255,-99.99,,,0.00,Wunderground v.1.15,2013-02-27 19:45:00,
2013-02-27 13:47:00,-999.9,-99.9,29.65,NW,318,2.0,4.0,255,-99.99,,,0.00,Wunderground v.1.15,2013-02-27 19:47:00,
2013-02-27 13:51:00,-999.9,-99.9,29.66,NNW,337,1.0,4.0,255,-99.99,,,0.00,Wunderground v.1.15,2013-02-27 19:51:00,
2013-02-27 13:53:00,-999.9,-99.9,29.66,NNW,337,1.0,4.0,255,-99.99,,,0.00,Wunderground v.1.15,2013-02-27 19:53:00,
2013-02-27 13:59:00,-999.9,-99.9,29.66,NW,322,0.0,5.0,255,-99.99,,,0.00,Wunderground v.1.15,2013-02-27 19:59:00,
2013-02-27 14:01:00,-999.9,-99.9,29.66,NW,305,2.0,4.0,255,-99.99,,,0.00,Wunderground v.1.15,2013-02-27 20:01:00,
2013-02-27 14:05:00,-999.9,-99.9,29.66,WNW,299,0.0,4.0,255,-99.99,,,0.00,Wunderground v.1.15,2013-02-27 20:05:00,
2013-02-27 14:07:00,-999.9,-99.9,29.66,WNW,299,0.0,4.0,255,-99.99,,,0.00,Wunderground v.1.15,2013-02-27 20:07:00,
2013-02-27 14:09:00,-999.9,-99.9,29.66,NW,305,3.0,4.0,255,-99.99,,,0.00,Wunderground v.1.15,2013-02-27 20:09:00,
2013-02-27 14:11:00,-999.9,-99.9,29.66,NW,305,3.0,3.0,255,-99.99,,,0.00,Wunderground v.1.15,2013-02-27 20:11:00,
2013-02-27 14:13:00,-999.9,-99.9,29.66,NNW,330,0.0,3.0,255,-99.99,,,0.00,Wunderground v.1.15,2013-02-27 20:13:00,
2013-02-27 14:15:00,-999.9,-99.9,29.66,NNW,329,2.0,3.0,255,-99.99,,,0.00,Wunderground v.1.15,2013-02-27 20:15:00,
2013-02-27 14:17:00,-999.9,-99.9,29.66,NW,316,1.0,3.0,255,-99.99,,,0.00,Wunderground v.1.15,2013-02-27 20:17:00,
2013-02-27 14:19:00,-999.9,-99.9,29.66,NW,316,1.0,3.0,255,-99.99,,,0.00,Wunderground v.1.15,2013-02-27 20:19:00,
2013-02-27 14:21:00,-999.9,-99.9,29.66,NW,316,1.0,1.0,255,-99.99,,,0.00,Wunderground v.1.15,2013-02-27 20:21:00,
2013-02-27 14:23:00,-999.9,-99.9,29.66,NW,313,2.0,2.0,255,-99.99,,,0.00,Wunderground v.1.15,2013-02-27 20:23:00,
2013-02-27 14:27:00,-999.9,-99.9,29.66,NW,308,0.0,2.0,255,-99.99,,,0.00,Wunderground v.1.15,2013-02-27 20:27:00,
2013-02-27 14:31:00,-999.9,-99.9,29.66,North,356,2.0,2.0,255,-99.99,,,0.00,Wunderground v.1.15,2013-02-27 20:31:00,
2013-02-27 14:35:00,-999.9,-99.9,29.66,NW,309,2.0,2.0,255,-99.99,,,0.00,Wunderground v.1.15,2013-02-27 20:35:00,
2013-02-27 14:37:00,-999.9,-99.9,29.66,NW,309,3.0,3.0,255,-99.99,,,0.00,Wunderground v.1.15,2013-02-27 20:37:00,
2013-02-27 14:43:00,-999.9,-99.9,29.66,NNW,339,6.0,6.0,255,-99.99,,,0.00,Wunderground v.1.15,2013-02-27 20:43:00,
2013-02-27 14:45:00,-999.9,-99.9,29.66,NW,308,2.0,6.0,255,-99.99,,,0.00,Wunderground v.1.15,2013-02-27 20:45:00,
2013-02-27 14:47:00,-999.9,-99.9,29.66,NW,308,2.0,6.0,255,-99.99,,,0.00,Wunderground v.1.15,2013-02-27 20:47:00,
2013-02-27 14:49:00,-999.9,-99.9,29.66,WNW,292,6.0,6.0,255,-99.99,,,0.00,Wunderground v.1.15,2013-02-27 20:49:00,
2013-02-27 14:51:00,-999.9,-99.9,29.67,WNW,292,6.0,6.0,255,-99.99,,,0.00,Wunderground v.1.15,2013-02-27 20:51:00,
2013-02-27 14:55:00,-999.9,-99.9,29.67,WNW,292,6.0,6.0,255,-99.99,,,0.00,Wunderground v.1.15,2013-02-27 20:55:00,
2013-02-27 14:57:00,-999.9,-99.9,29.67,WNW,292,6.0,6.0,255,-99.99,,,0.00,Wunderground v.1.15,2013-02-27 20:57:00,
2013-02-27 14:59:00,-999.9,-99.9,29.67,West,264,5.0,6.0,255,-99.99,,,0.00,Wunderground v.1.15,2013-02-27 20:59:00,
2013-02-27 15:01:00,-999.9,-99.9,29.67,West,264,5.0,5.0,255,-99.99,,,0.00,Wunderground v.1.15,2013-02-27 21:01:00,
2013-02-27 15:03:00,-999.9,-99.9,29.67,NNW,335,4.0,5.0,255,-99.99,,,0.00,Wunderground v.1.15,2013-02-27 21:03:00,
2013-02-27 15:05:00,-999.9,-99.9,29.67,NNW,335,4.0,5.0,255,-99.99,,,0.00,Wunderground v.1.15,2013-02-27 21:05:00,
2013-02-27 15:07:00,-999.9,-99.9,29.67,NNW,335,4.0,5.0,255,-99.99,,,0.00,Wunderground v.1.15,2013-02-27 21:07:00,
2013-02-27 15:13:00,-999.9,-99.9,29.67,WNW,298,0.0,0.0,255,-99.99,,,0.00,Wunderground v.1.15,2013-02-27 21:13:00,
2013-02-27 15:15:00,-999.9,-99.9,29.67,NW,320,0.0,0.0,255,-99.99,,,0.00,Wunderground v.1.15,2013-02-27 21:15:00,
2013-02-27 15:21:00,-999.9,-99.9,29.68,NNW,337,0.0,0.0,255,-99.99,,,0.00,Wunderground v.1.15,2013-02-27 21:21:00,
2013-02-27 15:23:00,-999.9,-99.9,29.68,NW,313,0.0,0.0,255,-99.99,,,0.00,Wunderground v.1.15,2013-02-27 21:23:00,
2013-02-27 15:29:00,-999.9,-99.9,29.68,NNW,343,0.0,5.0,255,-99.99,,,0.00,Wunderground v.1.15,2013-02-27 21:29:00,
2013-02-27 15:31:00,-999.9,-99.9,29.68,NNW,343,0.0,5.0,255,-99.99,,,0.00,Wunderground v.1.15,2013-02-27 21:31:00,
2013-02-27 15:33:00,-999.9,-99.9,29.68,NW,305,0.0,5.0,255,-99.99,,,0.00,Wunderground v.1.15,2013-02-27 21:33:00,
2013-02-27 15:35:00,-999.9,-99.9,29.69,NW,313,2.0,5.0,255,-99.99,,,0.00,Wunderground v.1.15,2013-02-27 21:35:00,
2013-02-27 15:39:00,-999.9,-99.9,29.69,North,354,0.0,5.0,255,-99.99,,,0.00,Wunderground v.1.15,2013-02-27 21:39:00,
2013-02-27 15:43:00,-999.9,-99.9,29.69,NW,305,1.0,2.0,255,-99.99,,,0.00,Wunderground v.1.15,2013-02-27 21:43:00,
2013-02-27 15:45:00,-999.9,-99.9,29.69,NW,323,2.0,3.0,255,-99.99,,,0.00,Wunderground v.1.15,2013-02-27 21:45:00,
2013-02-27 15:49:00,-999.9,-99.9,29.69,NNW,328,2.0,5.0,255,-99.99,,,0.00,Wunderground v.1.15,2013-02-27 21:49:00,
2013-02-27 15:51:00,-999.9,-99.9,29.74,NNW,328,3.0,3.0,255,-99.99,,,0.00,Wunderground v.1.15,2013-02-27 21:51:00,
2013-02-27 15:55:00,-999.9,-99.9,29.74,NNW,328,2.0,5.0,255,-99.99,,,0.00,Wunderground v.1.15,2013-02-27 21:55:00,
2013-02-27 15:57:00,-999.9,-99.9,29.74,WNW,301,2.0,5.0,255,-99.99,,,0.00,Wunderground v.1.15,2013-02-27 21:57:00,
2013-02-27 15:59:00,-999.9,-99.9,29.74,WNW,301,2.0,5.0,255,-99.99,,,0.00,Wunderground v.1.15,2013-02-27 21:59:00,
2013-02-27 16:05:00,-999.9,-99.9,29.74,NW,306,1.0,7.0,255,-99.99,,,0.00,Wunderground v.1.15,2013-02-27 22:05:00,
2013-02-27 16:09:00,-999.9,-99.9,29.74,NW,306,1.0,7.0,255,-99.99,,,0.00,Wunderground v.1.15,2013-02-27 22:09:00,
2013-02-27 16:11:00,-999.9,-99.9,29.74,NNW,329,5.0,5.0,255,-99.99,,,0.00,Wunderground v.1.15,2013-02-27 22:11:00,
2013-02-27 16:15:00,-999.9,-99.9,29.74,NNW,340,2.0,5.0,255,-99.99,,,0.00,Wunderground v.1.15,2013-02-27 22:15:00,
2013-02-27 16:19:00,-999.9,-99.9,29.74,WNW,294,7.0,7.0,255,-99.99,,,0.00,Wunderground v.1.15,2013-02-27 22:19:00,
2013-02-27 16:21:00,-999.9,-99.9,29.74,WNW,296,2.0,2.0,255,-99.99,,,0.00,Wunderground v.1.15,2013-02-27 22:21:00,
2013-02-27 16:23:00,-999.9,-99.9,29.74,NNW,329,5.0,5.0,255,-99.99,,,0.00,Wunderground v.1.15,2013-02-27 22:23:00,
2013-02-27 16:25:00,-999.9,-99.9,29.74,NW,308,0.0,5.0,255,-99.99,,,0.00,Wunderground v.1.15,2013-02-27 22:25:00,
2013-02-27 16:31:00,-999.9,-99.9,29.74,NNW,344,1.0,6.0,255,-99.99,,,0.00,Wunderground v.1.15,2013-02-27 22:31:00,
2013-02-27 16:33:00,-999.9,-99.9,29.74,WNW,301,1.0,6.0,255,-99.99,,,0.00,Wunderground v.1.15,2013-02-27 22:33:00,
2013-02-27 16:37:00,-999.9,-99.9,29.75,NW,320,1.0,6.0,255,-99.99,,,0.00,Wunderground v.1.15,2013-02-27 22:37:00,
2013-02-27 16:41:00,-999.9,-99.9,29.75,NW,320,0.0,2.0,255,-99.99,,,0.00,Wunderground v.1.15,2013-02-27 22:41:00,
2013-02-27 16:45:00,-999.9,-99.9,29.75,WNW,302,2.0,2.0,255,-99.99,,,0.00,Wunderground v.1.15,2013-02-27 22:45:00,
2013-02-27 16:47:00,-999.9,-99.9,29.75,NW,306,2.0,3.0,255,-99.99,,,0.00,Wunderground v.1.15,2013-02-27 22:47:00,
2013-02-27 16:53:00,-999.9,-99.9,29.71,WNW,289,1.0,3.0,255,-99.99,,,0.00,Wunderground v.1.15,2013-02-27 22:53:00,
2013-02-27 16:55:00,-999.9,-99.9,29.71,WNW,289,2.0,3.0,255,-99.99,,,0.00,Wunderground v.1.15,2013-02-27 22:55:00,
2013-02-27 16:57:00,-999.9,-99.9,29.71,WNW,289,2.0,3.0,255,-99.99,,,0.00,Wunderground v.1.15,2013-02-27 22:57:00,
2013-02-27 16:59:00,-999.9,-99.9,29.71,WNW,289,2.0,3.0,255,-99.99,,,0.00,Wunderground v.1.15,2013-02-27 22:59:00,
2013-02-27 17:03:00,-999.9,-99.9,29.71,WNW,289,2.0,2.0,255,-99.99,,,0.00,Wunderground v.1.15,2013-02-27 23:03:00,
2013-02-27 17:05:00,-999.9,-99.9,29.71,NW,311,1.0,2.0,255,-99.99,,,0.00,Wunderground v.1.15,2013-02-27 23:05:00,
2013-02-27 17:09:00,-999.9,-99.9,29.71,NW,311,0.0,2.0,255,-99.99,,,0.00,Wunderground v.1.15,2013-02-27 23:09:00,
2013-02-27 17:11:00,-999.9,-99.9,29.71,NW,311,0.0,0.0,255,-99.99,,,0.00,Wunderground v.1.15,2013-02-27 23:11:00,
2013-02-27 17:15:00,-999.9,-99.9,29.71,NW,311,6.0,6.0,255,-99.99,,,0.00,Wunderground v.1.15,2013-02-27 23:15:00,
2013-02-27 17:17:00,-999.9,-99.9,29.71,NW,311,6.0,6.0,255,-99.99,,,0.00,Wunderground v.1.15,2013-02-27 23:17:00,
2013-02-27 17:19:00,-999.9,-99.9,29.71,NW,311,6.0,6.0,255,-99.99,,,0.00,Wunderground v.1.15,2013-02-27 23:19:00,
2013-02-27 17:25:00,-999.9,-99.9,29.71,NW,311,0.0,0.0,255,-99.99,,,0.00,Wunderground v.1.15,2013-02-27 23:25:00,
2013-02-27 17:27:00,-999.9,-99.9,29.71,NW,311,0.0,0.0,255,-99.99,,,0.00,Wunderground v.1.15,2013-02-27 23:27:00,
2013-02-27 17:31:00,-999.9,-99.9,29.71,NW,311,0.0,0.0,255,-99.99,,,0.00,Wunderground v.1.15,2013-02-27 23:31:00,
2013-02-27 17:33:00,-999.9,-99.9,29.71,NW,311,0.0,0.0,255,-99.99,,,0.00,Wunderground v.1.15,2013-02-27 23:33:00,
2013-02-27 17:35:00,-999.9,-99.9,29.72,NW,311,0.0,0.0,255,-99.99,,,0.00,Wunderground v.1.15,2013-02-27 23:35:00,
2013-02-27 17:37:00,-999.9,-99.9,29.72,NW,311,0.0,0.0,255,-99.99,,,0.00,Wunderground v.1.15,2013-02-27 23:37:00,
2013-02-27 17:39:00,-999.9,-99.9,29.72,NW,311,0.0,0.0,255,-99.99,,,0.00,Wunderground v.1.15,2013-02-27 23:39:00,
2013-02-27 17:45:00,-999.9,-99.9,29.72,NW,311,0.0,0.0,255,-99.99,,,0.00,Wunderground v.1.15,2013-02-27 23:45:00,
2013-02-27 17:47:00,-999.9,-99.9,29.72,NW,311,0.0,0.0,255,-99.99,,,0.00,Wunderground v.1.15,2013-02-27 23:47:00,
2013-02-27 17:51:00,-999.9,-99.9,29.72,North,32767,-999.0,0.0,255,-99.99,,,0.00,Wunderground v.1.15,2013-02-27 23:51:00,
2013-02-27 17:53:00,-999.9,-99.9,29.72,NW,311,7.0,7.0,255,-99.99,,,0.00,Wunderground v.1.15,2013-02-27 23:53:00,
2013-02-27 17:57:00,-999.9,-99.9,29.72,NW,311,0.0,7.0,255,-99.99,,,0.00,Wunderground v.1.15,2013-02-27 23:57:00,
2013-02-27 17:59:00,-999.9,-99.9,29.72,NW,311,0.0,7.0,255,-99.99,,,0.00,Wunderground v.1.15,2013-02-27 23:59:00,
2013-02-27 18:03:00,-999.9,-99.9,29.72,NW,311,0.0,0.0,255,-99.99,,,0.00,Wunderground v.1.15,2013-02-28 00:03:00,
2013-02-27 18:05:00,-999.9,-99.9,29.73,NW,311,0.0,0.0,255,-99.99,,,0.00,Wunderground v.1.15,2013-02-28 00:05:00,
2013-02-27 18:09:00,-999.9,-99.9,29.73,NW,311,0.0,0.0,255,-99.99,,,0.00,Wunderground v.1.15,2013-02-28 00:09:00,
2013-02-27 18:11:00,-999.9,-99.9,29.73,NW,311,0.0,0.0,255,-99.99,,,0.00,Wunderground v.1.15,2013-02-28 00:11:00,
2013-02-27 18:13:00,-999.9,-99.9,29.73,NW,311,0.0,0.0,255,-99.99,,,0.00,Wunderground v.1.15,2013-02-28 00:13:00,
2013-02-27 18:15:00,-999.9,-99.9,29.73,NW,311,0.0,0.0,255,-99.99,,,0.00,Wunderground v.1.15,2013-02-28 00:15:00,
2013-02-27 18:19:00,-999.9,-99.9,29.73,NW,311,2.0,2.0,255,-99.99,,,0.00,Wunderground v.1.15,2013-02-28 00:19:00,
2013-02-27 18:21:00,-999.9,-99.9,29.74,NW,311,5.0,5.0,255,-99.99,,,0.00,Wunderground v.1.15,2013-02-28 00:21:00,
2013-02-27 18:27:00,-999.9,-99.9,29.74,NW,311,0.0,5.0,255,-99.99,,,0.00,Wunderground v.1.15,2013-02-28 00:27:00,
2013-02-27 18:29:00,-999.9,-99.9,29.74,NW,311,0.0,5.0,255,-99.99,,,0.00,Wunderground v.1.15,2013-02-28 00:29:00,
2013-02-27 18:33:00,-999.9,-99.9,29.74,NW,311,7.0,7.0,255,-99.99,,,0.00,Wunderground v.1.15,2013-02-28 00:33:00,
2013-02-27 18:37:00,-999.9,-99.9,29.74,NW,311,0.0,7.0,255,-99.99,,,0.00,Wunderground v.1.15,2013-02-28 00:37:00,
2013-02-27 18:41:00,-999.9,-99.9,29.74,NW,311,0.0,0.0,255,-99.99,,,0.00,Wunderground v.1.15,2013-02-28 00:41:00,
2013-02-27 18:43:00,-999.9,-99.9,29.74,NW,311,0.0,0.0,255,-99.99,,,0.00,Wunderground v.1.15,2013-02-28 00:43:00,
2013-02-27 18:45:00,-999.9,-99.9,29.74,NW,311,0.0,0.0,255,-99.99,,,0.00,Wunderground v.1.15,2013-02-28 00:45:00,
2013-02-27 18:47:00,-999.9,-99.9,29.74,NW,311,0.0,0.0,255,-99.99,,,0.00,Wunderground v.1.15,2013-02-28 00:47:00,
2013-02-27 18:49:00,-999.9,-99.9,29.74,NW,311,0.0,0.0,255,-99.99,,,0.00,Wunderground v.1.15,2013-02-28 00:49:00,
2013-02-27 18:51:00,-999.9,-99.9,29.79,NW,311,0.0,0.0,255,-99.99,,,0.00,Wunderground v.1.15,2013-02-28 00:51:00,
2013-02-27 18:53:00,-999.9,-99.9,29.79,NW,311,5.0,5.0,255,-99.99,,,0.00,Wunderground v.1.15,2013-02-28 00:53:00,
2013-02-27 18:55:00,-999.9,-99.9,29.79,NW,311,5.0,5.0,255,-99.99,,,0.00,Wunderground v.1.15,2013-02-28 00:55:00,
2013-02-27 18:57:00,-999.9,-99.9,29.79,NW,311,5.0,5.0,255,-99.99,,,0.00,Wunderground v.1.15,2013-02-28 00:57:00,
2013-02-27 18:59:00,-999.9,-99.9,29.79,NW,311,5.0,5.0,255,-99.99,,,0.00,Wunderground v.1.15,2013-02-28 00:59:00,
2013-02-27 19:01:00,-999.9,-99.9,29.79,NW,311,5.0,5.0,255,-99.99,,,0.00,Wunderground v.1.15,2013-02-28 01:01:00,
2013-02-27 19:05:00,-999.9,-99.9,29.80,North,32767,-999.0,5.0,255,-99.99,,,0.00,Wunderground v.1.15,2013-02-28 01:05:00,
2013-02-27 19:07:00,-999.9,-99.9,29.80,North,32767,-999.0,5.0,255,-99.99,,,0.00,Wunderground v.1.15,2013-02-28 01:07:00,
2013-02-27 19:13:00,-999.9,-99.9,29.80,North,32767,-999.0,0.0,255,-99.99,,,0.00,Wunderground v.1.15,2013-02-28 01:13:00,
2013-02-27 19:15:00,-999.9,-99.9,29.80,North,32767,-999.0,0.0,255,-99.99,,,0.00,Wunderground v.1.15,2013-02-28 01:15:00,
2013-02-27 19:19:00,-999.9,-99.9,29.80,North,32767,-999.0,0.0,255,-99.99,,,0.00,Wunderground v.1.15,2013-02-28 01:19:00,
2013-02-27 19:21:00,-999.9,-99.9,29.80,North,32767,-999.0,0.0,255,-99.99,,,0.00,Wunderground v.1.15,2013-02-28 01:21:00,
2013-02-27 19:23:00,-999.9,-99.9,29.80,North,32767,-999.0,0.0,255,-99.99,,,0.00,Wunderground v.1.15,2013-02-28 01:23:00,
2013-02-27 19:27:00,-999.9,-99.9,29.80,North,32767,-999.0,0.0,255,-99.99,,,0.00,Wunderground v.1.15,2013-02-28 01:27:00,
2013-02-27 19:29:00,-999.9,-99.9,29.80,North,32767,-999.0,0.0,255,-99.99,,,0.00,Wunderground v.1.15,2013-02-28 01:29:00,
2013-02-27 19:31:00,-999.9,-99.9,29.80,North,32767,-999.0,0.0,255,-99.99,,,0.00,Wunderground v.1.15,2013-02-28 01:31:00,
2013-02-27 19:33:00,-999.9,-99.9,29.80,North,32767,-999.0,0.0,255,-99.99,,,0.00,Wunderground v.1.15,2013-02-28 01:33:00,
2013-02-27 19:35:00,-999.9,-99.9,29.80,NW,311,2.0,2.0,255,-99.99,,,0.00,Wunderground v.1.15,2013-02-28 01:35:00,
2013-02-27 19:37:00,-999.9,-99.9,29.80,NW,311,0.0,2.0,255,-99.99,,,0.00,Wunderground v.1.15,2013-02-28 01:37:00,
2013-02-27 19:39:00,-999.9,-99.9,29.80,NW,311,0.0,2.0,255,-99.99,,,0.00,Wunderground v.1.15,2013-02-28 01:39:00,
2013-02-27 19:43:00,-999.9,-99.9,29.80,NW,311,2.0,2.0,255,-99.99,,,0.00,Wunderground v.1.15,2013-02-28 01:43:00,
2013-02-27 19:45:00,-999.9,-99.9,29.80,NW,311,0.0,2.0,255,-99.99,,,0.00,Wunderground v.1.15,2013-02-28 01:45:00,
2013-02-27 19:47:00,-999.9,-99.9,29.80,NW,311,0.0,2.0,255,-99.99,,,0.00,Wunderground v.1.15,2013-02-28 01:47:00,
2013-02-27 19:51:00,-999.9,-99.9,29.80,NW,311,2.0,2.0,255,-99.99,,,0.00,Wunderground v.1.15,2013-02-28 01:51:00,
2013-02-27 19:53:00,-999.9,-99.9,29.80,NW,311,1.0,2.0,255,-99.99,,,0.00,Wunderground v.1.15,2013-02-28 01:53:00,
2013-02-27 19:57:00,-999.9,-99.9,29.80,NW,311,1.0,3.0,255,-99.99,,,0.00,Wunderground v.1.15,2013-02-28 01:57:00,
2013-02-27 19:59:00,-999.9,-99.9,29.80,NW,311,3.0,3.0,255,-99.99,,,0.00,Wunderground v.1.15,2013-02-28 01:59:00,
2013-02-27 20:01:00,-999.9,-99.9,29.80,NW,311,3.0,3.0,255,-99.99,,,0.00,Wunderground v.1.15,2013-02-28 02:01:00,
2013-02-27 20:07:00,-999.9,-99.9,29.80,NW,311,3.0,3.0,255,-99.99,,,0.00,Wunderground v.1.15,2013-02-28 02:07:00,
2013-02-27 20:09:00,-999.9,-99.9,29.80,North,32767,-999.0,3.0,255,-99.99,,,0.00,Wunderground v.1.15,2013-02-28 02:09:00,
2013-02-27 20:13:00,-999.9,-99.9,29.80,North,32767,-999.0,0.0,255,-99.99,,,0.00,Wunderground v.1.15,2013-02-28 02:13:00,
2013-02-27 20:17:00,-999.9,-99.9,29.80,North,32767,-999.0,0.0,255,-99.99,,,0.00,Wunderground v.1.15,2013-02-28 02:17:00,
2013-02-27 20:21:00,-999.9,-99.9,29.81,North,32767,-999.0,0.0,255,-99.99,,,0.00,Wunderground v.1.15,2013-02-28 02:21:00,
2013-02-27 20:23:00,-999.9,-99.9,29.81,North,32767,-999.0,0.0,255,-99.99,,,0.00,Wunderground v.1.15,2013-02-28 02:23:00,
2013-02-27 20:29:00,-999.9,-99.9,29.81,North,32767,-999.0,3.0,255,-99.99,,,0.00,Wunderground v.1.15,2013-02-28 02:29:00,
2013-02-27 20:31:00,-999.9,-99.9,29.81,North,32767,-999.0,3.0,255,-99.99,,,0.00,Wunderground v.1.15,2013-02-28 02:31:00,
2013-02-27 20:33:00,-999.9,-99.9,29.81,North,32767,-999.0,3.0,255,-99.99,,,0.00,Wunderground v.1.15,2013-02-28 02:33:00,
2013-02-27 20:39:00,-999.9,-99.9,29.81,North,32767,-999.0,3.0,255,-99.99,,,0.00,Wunderground v.1.15,2013-02-28 02:39:00,
2013-02-27 20:41:00,-999.9,-99.9,29.81,North,32767,-999.0,3.0,255,-99.99,,,0.00,Wunderground v.1.15,2013-02-28 02:41:00,
2013-02-27 20:45:00,-999.9,-99.9,29.81,North,32767,-999.0,3.0,255,-99.99,,,0.00,Wunderground v.1.15,2013-02-28 02:45:00,
2013-02-27 20:47:00,-999.9,-99.9,29.81,North,32767,-999.0,3.0,255,-99.99,,,0.00,Wunderground v.1.15,2013-02-28 02:47:00,
2013-02-27 20:49:00,-999.9,-99.9,29.81,North,32767,-999.0,3.0,255,-99.99,,,0.00,Wunderground v.1.15,2013-02-28 02:49:00,
2013-02-27 20:55:00,-999.9,-99.9,29.81,North,32767,-999.0,3.0,255,-99.99,,,0.00,Wunderground v.1.15,2013-02-28 02:55:00,
2013-02-27 20:59:00,-999.9,-99.9,29.81,North,32767,-999.0,3.0,255,-99.99,,,0.00,Wunderground v.1.15,2013-02-28 02:59:00,
2013-02-27 21:05:00,-999.9,-99.9,29.82,NW,311,0.0,3.0,255,-99.99,,,0.00,Wunderground v.1.15,2013-02-28 03:05:00,
2013-02-27 21:07:00,-999.9,-99.9,29.82,NW,311,0.0,3.0,255,-99.99,,,0.00,Wunderground v.1.15,2013-02-28 03:07:00,
2013-02-27 21:09:00,-999.9,-99.9,29.82,NW,311,0.0,3.0,255,-99.99,,,0.00,Wunderground v.1.15,2013-02-28 03:09:00,
2013-02-27 21:11:00,-999.9,-99.9,29.82,North,32767,-999.0,0.0,255,-99.99,,,0.00,Wunderground v.1.15,2013-02-28 03:11:00,
2013-02-27 21:15:00,-999.9,-99.9,29.82,NW,311,0.0,0.0,255,-99.99,,,0.00,Wunderground v.1.15,2013-02-28 03:15:00,
2013-02-27 21:19:00,-999.9,-99.9,29.82,NW,311,0.0,0.0,255,-99.99,,,0.00,Wunderground v.1.15,2013-02-28 03:19:00,
2013-02-27 21:21:00,-999.9,-99.9,29.82,NW,311,0.0,0.0,255,-99.99,,,0.00,Wunderground v.1.15,2013-02-28 03:21:00,
2013-02-27 21:23:00,-999.9,-99.9,29.82,NW,311,0.0,0.0,255,-99.99,,,0.00,Wunderground v.1.15,2013-02-28 03:23:00,
2013-02-27 21:25:00,-999.9,-99.9,29.82,NW,311,0.0,0.0,255,-99.99,,,0.00,Wunderground v.1.15,2013-02-28 03:25:00,
2013-02-27 21:27:00,-999.9,-99.9,29.82,NW,311,2.0,2.0,255,-99.99,,,0.00,Wunderground v.1.15,2013-02-28 03:27:00,
2013-02-27 21:29:00,-999.9,-99.9,29.82,NW,311,2.0,2.0,255,-99.99,,,0.00,Wunderground v.1.15,2013-02-28 03:29:00,
2013-02-27 21:31:00,-999.9,-99.9,29.82,NW,311,2.0,2.0,255,-99.99,,,0.00,Wunderground v.1.15,2013-02-28 03:31:00,
2013-02-27 21:33:00,-999.9,-99.9,29.82,NW,311,0.0,2.0,255,-99.99,,,0.00,Wunderground v.1.15,2013-02-28 03:33:00,
2013-02-27 21:35:00,-999.9,-99.9,29.82,NW,311,3.0,3.0,255,-99.99,,,0.00,Wunderground v.1.15,2013-02-28 03:35:00,
2013-02-27 21:39:00,-999.9,-99.9,29.82,NW,311,1.0,3.0,255,-99.99,,,0.00,Wunderground v.1.15,2013-02-28 03:39:00,
2013-02-27 21:41:00,-999.9,-99.9,29.82,NW,311,1.0,1.0,255,-99.99,,,0.00,Wunderground v.1.15,2013-02-28 03:41:00,
2013-02-27 21:45:00,-999.9,-99.9,29.82,NW,311,2.0,2.0,255,-99.99,,,0.00,Wunderground v.1.15,2013-02-28 03:45:00,
2013-02-27 21:47:00,-999.9,-99.9,29.82,NW,311,0.0,2.0,255,-99.99,,,0.00,Wunderground v.1.15,2013-02-28 03:47:00,
2013-02-27 21:49:00,-999.9,-99.9,29.82,NW,311,0.0,2.0,255,-99.99,,,0.00,Wunderground v.1.15,2013-02-28 03:49:00,
2013-02-27 21:51:00,-999.9,-99.9,29.77,NW,311,0.0,0.0,255,-99.99,,,0.00,Wunderground v.1.15,2013-02-28 03:51:00,
2013-02-27 21:53:00,-999.9,-99.9,29.77,NW,311,0.0,0.0,255,-99.99,,,0.00,Wunderground v.1.15,2013-02-28 03:53:00,
2013-02-27 21:59:00,-999.9,-99.9,29.77,NW,311,0.0,0.0,255,-99.99,,,0.00,Wunderground v.1.15,2013-02-28 03:59:00,
2013-02-27 22:05:00,-999.9,-99.9,29.78,NW,311,0.0,0.0,255,-99.99,,,0.00,Wunderground v.1.15,2013-02-28 04:05:00,
2013-02-27 22:07:00,-999.9,-99.9,29.78,North,32767,-999.0,0.0,255,-99.99,,,0.00,Wunderground v.1.15,2013-02-28 04:07:00,
2013-02-27 22:11:00,-999.9,-99.9,29.78,NW,311,0.0,0.0,255,-99.99,,,0.00,Wunderground v.1.15,2013-02-28 04:11:00,
2013-02-27 22:17:00,-999.9,-99.9,29.78,NW,311,3.0,6.0,255,-99.99,,,0.00,Wunderground v.1.15,2013-02-28 04:17:00,
2013-02-27 22:19:00,-999.9,-99.9,29.78,NW,311,6.0,6.0,255,-99.99,,,0.00,Wunderground v.1.15,2013-02-28 04:19:00,
2013-02-27 22:21:00,-999.9,-99.9,29.78,NW,311,2.0,2.0,255,-99.99,,,0.00,Wunderground v.1.15,2013-02-28 04:21:00,
2013-02-27 22:25:00,-999.9,-99.9,29.78,NW,311,2.0,2.0,255,-99.99,,,0.00,Wunderground v.1.15,2013-02-28 04:25:00,
2013-02-27 22:29:00,-999.9,-99.9,29.78,NW,311,2.0,2.0,255,-99.99,,,0.00,Wunderground v.1.15,2013-02-28 04:29:00,
2013-02-27 22:31:00,-999.9,-99.9,29.78,North,32767,-999.0,0.0,255,-99.99,,,0.00,Wunderground v.1.15,2013-02-28 04:31:00,
2013-02-27 22:33:00,-999.9,-99.9,29.78,North,32767,-999.0,0.0,255,-99.99,,,0.00,Wunderground v.1.15,2013-02-28 04:33:00,
2013-02-27 22:37:00,-999.9,-99.9,29.78,North,32767,-999.0,0.0,255,-99.99,,,0.00,Wunderground v.1.15,2013-02-28 04:37:00,
2013-02-27 22:39:00,-999.9,-99.9,29.78,North,32767,-999.0,0.0,255,-99.99,,,0.00,Wunderground v.1.15,2013-02-28 04:39:00,
2013-02-27 22:41:00,-999.9,-99.9,29.78,North,32767,-999.0,0.0,255,-99.99,,,0.00,Wunderground v.1.15,2013-02-28 04:41:00,
2013-02-27 22:43:00,-999.9,-99.9,29.78,North,32767,-999.0,0.0,255,-99.99,,,0.00,Wunderground v.1.15,2013-02-28 04:43:00,
2013-02-27 22:47:00,-999.9,-99.9,29.78,North,32767,-999.0,0.0,255,-99.99,,,0.00,Wunderground v.1.15,2013-02-28 04:47:00,
2013-02-27 22:49:00,-999.9,-99.9,29.78,North,32767,-999.0,0.0,255,-99.99,,,0.00,Wunderground v.1.15,2013-02-28 04:49:00,
2013-02-27 22:53:00,-999.9,-99.9,29.83,North,32767,-999.0,0.0,255,-99.99,,,0.00,Wunderground v.1.15,2013-02-28 04:53:00,
2013-02-27 22:55:00,-999.9,-99.9,29.83,North,32767,-999.0,0.0,255,-99.99,,,0.00,Wunderground v.1.15,2013-02-28 04:55:00,
2013-02-27 22:59:00,-999.9,-99.9,29.83,North,32767,-999.0,0.0,255,-99.99,,,0.00,Wunderground v.1.15,2013-02-28 04:59:00,
2013-02-27 23:01:00,-999.9,-99.9,29.83,North,32767,-999.0,0.0,255,-99.99,,,0.00,Wunderground v.1.15,2013-02-28 05:01:00,
2013-02-27 23:03:00,-999.9,-99.9,29.83,NW,311,2.0,2.0,255,-99.99,,,0.00,Wunderground v.1.15,2013-02-28 05:03:00,
2013-02-27 23:05:00,-999.9,-99.9,29.83,NW,311,2.0,2.0,255,-99.99,,,0.00,Wunderground v.1.15,2013-02-28 05:05:00,
2013-02-27 23:11:00,-999.9,-99.9,29.83,NW,311,2.0,2.0,255,-99.99,,,0.00,Wunderground v.1.15,2013-02-28 05:11:00,
2013-02-27 23:15:00,-999.9,-99.9,29.83,NW,311,1.0,2.0,255,-99.99,,,0.00,Wunderground v.1.15,2013-02-28 05:15:00,
2013-02-27 23:21:00,-999.9,-99.9,29.83,NW,311,1.0,1.0,255,-99.99,,,0.00,Wunderground v.1.15,2013-02-28 05:21:00,
2013-02-27 23:23:00,-999.9,-99.9,29.83,NW,311,0.0,1.0,255,-99.99,,,0.00,Wunderground v.1.15,2013-02-28 05:23:00,
2013-02-27 23:25:00,-999.9,-99.9,29.83,NW,311,3.0,3.0,255,-99.99,,,0.00,Wunderground v.1.15,2013-02-28 05:25:00,
2013-02-27 23:27:00,-999.9,-99.9,29.83,NW,311,3.0,3.0,255,-99.99,,,0.00,Wunderground v.1.15,2013-02-28 05:27:00,
2013-02-27 23:29:00,-999.9,-99.9,29.83,NW,311,3.0,3.0,255,-99.99,,,0.00,Wunderground v.1.15,2013-02-28 05:29:00,
2013-02-27 23:33:00,-999.9,-99.9,29.83,NW,311,0.0,0.0,255,-99.99,,,0.00,Wunderground v.1.15,2013-02-28 05:33:00,
2013-02-27 23:35:00,-999.9,-99.9,29.83,NW,311,0.0,0.0,255,-99.99,,,0.00,Wunderground v.1.15,2013-02-28 05:35:00,
2013-02-27 23:41:00,-999.9,-99.9,29.83,NW,311,2.0,2.0,255,-99.99,,,0.00,Wunderground v.1.15,2013-02-28 05:41:00,
2013-02-27 23:43:00,-999.9,-99.9,29.83,NW,311,2.0,2.0,255,-99.99,,,0.00,Wunderground v.1.15,2013-02-28 05:43:00,
2013-02-27 23:45:00,-999.9,-99.9,29.83,NW,311,2.0,2.0,255,-99.99,,,0.00,Wunderground v.1.15,2013-02-28 05:45:00,
2013-02-27 23:47:00,-999.9,-99.9,29.83,NW,311,2.0,2.0,255,-99.99,,,0.00,Wunderground v.1.15,2013-02-28 05:47:00,
2013-02-27 23:49:00,-999.9,-99.9,29.83,NW,311,2.0,2.0,255,-99.99,,,0.00,Wunderground v.1.15,2013-02-28 05:49:00,
2013-02-27 23:53:00,-999.9,-99.9,29.78,North,32767,-999.0,0.0,255,-99.99,,,0.00,Wunderground v.1.15,2013-02-28 05:53:00,
2013-02-27 23:57:00,-999.9,-99.9,29.78,North,32767,-999.0,0.0,255,-99.99,,,0.00,Wunderground v.1.15,2013-02-28 05:57:00,
2013-02-27 23:59:00,-999.9,-99.9,29.78,North,32767,-999.0,0.0,255,-99.99,,,0.00,Wunderground v.1.15,2013-02-28 05:59:00,